星链-34030 (STARLINK-34030)

导读

STARLINK-34030是美国于2025年5月16日发射的星链卫星,隶属于SpaceX公司的星链计划。该计划旨在构建全球卫星互联网星座,为全球偏远地区、海洋空域等提供高速低延迟的宽带网络服务,此卫星加入后进一步扩充了星链星座的在轨规模与全球覆盖能力。

基本信息
目录编号:
64030
目录名称:
STARLINK-34030
国际标识:
2025-102J
轨道中心:
EARTH
卫星名称:
星链-34030
卫星全名:
星链-34030 (STARLINK-34030)
卫星状态:
在轨 (已飞行476 天)
发射日期:
2025-05-16 UTC
国别 :
美国 (US)
星等 :
--
轨道信息
数据来源 国际轨道数据
星历时间: 2026-09-04T04:00:02+0800
8小时前
查看轨道信息
半长轴: 6862.312km
偏心率: 0.0004772
轨道倾角: 69.999°
近地点辐角 256.249°
升交点赤经 25.110°
平近点角 12.448°
近地点: 480.9km
远地点: 487.45km
周期: 94.290分钟
每日圈数: 15.272043
详细信息
固有亮度:
5
最大亮度:
2.5
卫星平台:
Starlink V1.0
覆盖范围:
全球
运营商:
太空探索技术公司
运营商所在国:
美国
制造商(研发单位):
太空探索技术公司
制造商所在国:
美国
使用方式:
暂无
卫星简介
Starlink 计划是 SpaceX 推出的全球卫星互联网项目,通过发射低轨道卫星,为全球尤其是偏远地区提供高速、低延迟的互联网服务。自 2019 年起,Starlink 已部署数千颗卫星,旨在缩小全球数字鸿沟,推动互联网普及。该项目还为军事、航空等行业提供通信支持,带来广泛经济效益。
2D轨道图
3D轨道图
轨道高度分析图
轨道倾角分析图
轨道综合分析图
查看轨道综合分析图
交会数据列表
事件ID 空间交会对象 最接近时刻(TCA) 交会距离 交会风险概率(CRP) 交会风险指数(CRI) 操作
CDM_260904-030906-403006-807921
2026-09-04T
03:09:13+0000
0.522 km
远距离
9.886243E-5 中风险 0.75
CDM_260903-113605-867806-403021
2026-09-03T
11:36:12+0000
1.631 km
极远距离
4.420651E-6 低风险 0.48
CDM_260831-034106-403006-430121
2026-08-31T
03:41:07+0000
2.151 km
极远距离
1.779757E-6 低风险 0.4